User: anonymous   Login
Location: Albany
(35.0000°S, 118.0000°E)
Time: 14:04:47
(UTC-05:00)
Language:

Cosmos 2227 Rocket - Orbit

View from above orbital plane
View from above orbital plane
View from above satellite
View from above satellite

Ground track
Ground track

The orbit data is extracted from the following two-line orbital elements,

1 22285U 92093B   14324.58032860  .00000279  00000-0  16901-3 0  4553
2 22285 071.0223 023.2754 0002361 142.1789 217.9500 14.14930219129621
Epoch (UTC): 20 November 2014 13:55:40
Eccentricity: 0.0002361
inclination: 71.0223°
perigee height: 841 km
apogee height: 844 km
right ascension of ascending node: 23.2754°
argument of perigee: 142.1789°
revolutions per day: 14.14930219
mean anomaly at epoch: 217.9500°
orbit number at epoch: 12962

The dashed part of the orbit path shows where the satellite is in the earth's shadow,  

DLR